OpenBCM V1.13 (Linux)

Packet Radio Mailbox

DB0FHN

[JN59NK Nuernberg]

 Login: GUEST





  
LU9DCE > KEP      18.05.19 20:34l 251 Lines 12319 Bytes #-2543 (0) @ WW
BID : 24801_LU9DCE
Read: DF7EAV DK3UZ GUEST
Subj: TLE 18 05
Path: DB0FHN<DB0BLO<DB0ERF<OK0NAG<IK6ZDE<I0OJJ<LU9DCE
Sent: 190518/1800Z 24801@LU9DCE.TOR.BA.ARG.SOAM LinBPQ6.0.18

>From lu9dce%lu9dce.tor.ba.arg.soam@i0ojj.ampr.org Sat May 18 20:01:47 2019
Received: from i0ojj.ampr.org by i0ojj.ampr.org (JNOS2.0k.3b) with SMTP
	id AA10483 ; Sat, 18 May 2019 20:01:47 +0200
Message-Id: <24801_lu9dce@lu9dce.bbs>
>From: lu9dce@lu9dce.tor.ba.arg.soam
X-JNOS-User-Port: Circuit  (X-YORK:VE3CGR-8 LU9DCE)  -> Sending message

            __    _  _  ___  ____   ___  ____    ____  ____  ____
           (  )  / )( \/ _ \(    \ / __)(  __)  (  _ \(  _ \/ ___)
           / (_/\) \/ (\__  )) D (( (__  ) _)    ) _ ( ) _ (\___ \
           \____/\____/(___/(____/ \___)(____)  (____/(____/(____/
               ESTACION DE PACKET RADIO - BUENOS AIRES (GF05OM)
                   BOLETINES INFORMATIVOS PROGRAMADOS (BIP)
              28.125 USB @ 300 BAUD --- HELLOCODELINUX@GMAIL.COM

+----------------------------------------------------------------------------+
OSCAR 7
1  7530U 74089B   19137.55825824 -.00000047  00000-0 -12935-4 0  9990
2  7530 101.7413 105.5523 0012553  50.2462  69.4906 12.53638104 36499
OSCAR 11 (UoSAT 2)
1 14781U 84021B   19137.51775892  .00000103  00000-0  18717-4 0  9993
2 14781  97.6133 163.7536 0009952  69.5794 290.6488 14.83084222893997
OSCAR 19 (LUSAT)
1 20442U 90005G   19137.40895334 -.00000005  00000-0  14558-4 0  9996
2 20442  98.6466  79.4669 0010674 242.3683 117.6418 14.32924827531751
EYESAT A
1 22825U 93061C   19137.52514766 -.00000002  00000-0  17082-4 0  9990
2 22825  98.9020 125.4310 0009537  92.3568 267.8705 14.30058405337358
ITAMSAT
1 22826U 93061D   19137.53430952 -.00000009  00000-0  14439-4 0  9996
2 22826  98.8959 125.4358 0010064  82.6003 277.6322 14.30391772337557
RADIO ROSTO
1 23439U 94085A   19136.78932077 -.00000014 +00000-0 +80611-3 0  9995
2 23439 064.8136 169.3335 0146644 119.6429 241.9190 11.27567904004189
JAS 2
1 24278U 96046B   19137.53190702 -.00000015  00000-0  22729-4 0  9999
2 24278  98.5326 295.3114 0349734 323.5691  34.2100 13.53091046123459
TECHSAT 1B
1 25397U 98043D   19137.43082939 -.00000027  00000-0  71862-5 0  9998
2 25397  98.6870  77.9696 0002258 110.3704 249.7717 14.23665205 83285
ISS (ZARYA)
1 25544U 98067A   19138.49504975  .00001587  00000-0  32729-4 0  9993
2 25544  51.6419 148.7134 0001598   5.0064 110.9110 15.52687601170646
PCSAT
1 26931U 01043C   19137.89939847 -.00000051  00000-0  12262-4 0  9991
2 26931  67.0514  85.7185 0006334 279.9284  80.1102 14.30541842920428
SAUDISAT 1C
1 27607U 02058C   19137.62468930  .00000005  00000-0  21491-4 0  9992
2 27607  64.5532 147.6369 0082198 262.6470  96.5285 14.75545429882302
CUTE-1
1 27844U 03031E   19138.48599457  .00000048  00000-0  41323-4 0  9994
2 27844  98.6846 147.1653 0010963 118.3523 241.8762 14.22176393823851
CUBESAT XI 4
1 27848U 03031J   19137.48400254  .00000046  00000-0  40646-4 0  9998
2 27848  98.6925 146.6712 0010672 131.1958 229.0141 14.21771428823561
MOZHAYETS 4
1 27939U 03042A   19138.25881010  .00000164  00000-0  37887-4 0  9994
2 27939  98.0342 274.6958 0013187 161.4922 198.6767 14.66778665835932
CUBESAT XI 5
1 28895U 05043F   19137.17289397  .00000154  00000-0  38388-4 0  9995
2 28895  97.9542 281.0279 0018276  94.5275 265.8016 14.63659910722738
CUTE-1.7+APD II
1 32785U 08021C   19137.48129099  .00000313  00000-0  39370-4 0  9992
2 32785  97.5495 138.7157 0013487  16.8104 343.3558 14.88297094598893
DELFI C3
1 32789U 08021G   19136.68237060 +.00001901 +00000-0 +13131-3 0  9995
2 32789 097.4672 187.3402 0010949 232.8691 127.1538 15.06881498601896
SEEDS
1 32791U 08021J   19137.48675316  .00000488  00000-0  54879-4 0  9991
2 32791  97.5286 144.6601 0013064 352.6490   7.4535 14.90801375599315
YUBELEINY
1 32953U 08025A   19138.09484358  .00000020  00000-0  75656-4 0  9995
2 32953  82.5019 164.4143 0018750 194.4616 165.5930 12.43089471498384
PRISM (HITOMI)
1 33493U 09002B   19137.50385468  .00000537  00000-0  52663-4 0  9994
2 33493  98.1221  57.2373 0013992 292.1636  67.8099 14.96618860560332
KKS-1 (KISEKI)
1 33499U 09002H   19138.20760773  .00000108  00000-0  23992-4 0  9991
2 33499  98.3523 335.9081 0008202 312.8070  47.2448 14.75433724554588
SWISSCUBE
1 35932U 09051B   19137.44141094  .00000169  00000-0  49161-4 0  9996
2 35932  98.5848 302.4764 0006380 262.9664  97.0807 14.56275256512084
BEESAT
1 35933U 09051C   19138.13341641  .00000116  00000-0  37280-4 0  9995
2 35933  98.5877 304.9315 0004575 276.5348  83.5328 14.56365750512290
ITUPSAT 1
1 35935U 09051E   19137.14174899  .00000122  00000-0  39117-4 0  9994
2 35935  98.5987 304.1509 0006895 276.2329  83.8082 14.55526836511904
XIWANG-1 (HOPE-1)
1 36122U 09072B   19138.19381326 -.00000027  00000-0  38909-4 0  9990
2 36122 100.0730 142.0553 0008175  61.6721 298.5246 13.16349610452732
TISAT 1
1 36799U 10035E   19136.86747130 +.00000271 +00000-0 +33452-4 0  9990
2 36799 098.1514 287.9402 0012143 187.0757 173.0291 14.91080775479670
JUGNU
1 37839U 11058B   19137.46908990  .00000319  00000-0  28233-4 0  9996
2 37839  19.9597 170.1773 0018842 332.5301 163.4838 14.12650292392692
SRMSAT
1 37841U 11058D   19137.53849758  .00000311  00000-0  25642-4 0  9996
2 37841  19.9710 225.8690 0011673 203.0199 271.6395 14.10631695392144
M-CUBED/EXP-1 PRIME
1 37855U 11061F   19137.69648403  .00001061  00000-0  60993-4 0  9997
2 37855 101.7189  16.8691 0173754 171.6134 188.8049 15.05342619411963
HORYU 2
1 38340U 12025D   19137.77520150  .00000201  00000-0  37403-4 0  9990
2 38340  98.3319 175.4032 0010652 220.4248 139.6169 14.75706941376455
STRAND 1
1 39090U 13009E   19137.15607393  .00000042  00000-0  29880-4 0  9996
2 39090  98.4917 343.6558 0009821  32.3435 327.8351 14.35083115325724
SOMP
1 39134U 13015E   19137.84705283  .00001365  00000-0  71796-4 0  9997
2 39134  64.8619 123.6020 0028097 309.1117  50.7512 15.20080507335759
BEESAT 3
1 39135U 13015F   19137.38326559  .00001454  00000-0  82047-4 0  9992
2 39135  64.8654 142.9524 0016290 324.3086  35.6950 15.17396718335341
BEESAT 2
1 39136U 13015G   19137.40819338  .00001157  00000-0  68349-4 0  9997
2 39136  64.8679 146.5958 0017089 309.1331  50.8275 15.16837336335277
CUBEBUG 1
1 39153U 13018D   19138.20186336  .00000167  00000-0  28752-4 0  9997
2 39153  97.9760 236.5078 0015661 303.1325  56.8384 14.80555089327155
ZACUBE
1 39417U 13066B   19137.47962809  .00000277  00000-0  41049-4 0  9994
2 39417  97.5641 152.7898 0060069 138.4958 222.0840 14.81100608296270
TRITON 1
1 39427U 13066M   19137.48390864  .00000190  00000-0  38586-4 0  9998
2 39427  97.6739 116.8565 0112264 268.6429  90.1914 14.67826481293615
GOMX 1
1 39430U 13066Q   19138.08066309  .00000382  00000-0  78164-4 0  9992
2 39430  97.7436  96.7191 0151696 354.5071   5.4460 14.59240422291995
HUMSAT D
1 39433U 13066T   19138.09668179  .00000475  00000-0  51616-4 0  9995
2 39433  97.5564 186.8881 0031919  48.4568 311.9382 14.92165756298369
CUBEBUG 2
1 39440U 13066AA  19137.88539405  .00000206  00000-0  35630-4 0  9998
2 39440  97.6019 138.2021 0080060 187.1957 172.8111 14.75839525295289
FUNCUBE 1
1 39444U 13066AE  19137.49795380  .00000319  00000-0  45422-4 0  9990
2 39444  97.5623 154.7206 0059321 132.5375 228.0870 14.81915839295168
UWE-3
1 39446U 13066AG  19136.99650396  .00000209  00000-0  34316-4 0  9991
2 39446  97.5818 144.3481 0070432 165.4962 194.8294 14.78373173294433
SPROUT
1 39770U 14029E   19138.21348496  .00001024  00000-0  11954-3 0  9991
2 39770  97.8807 241.7165 0008690 181.1435 178.9756 14.87305028270155
UNISAT 6
1 40012U 14033C   19137.49802296  .00000224  00000-0  40742-4 0  9998
2 40012  97.7621   5.4891 0057721 200.4245 159.4655 14.73964628263946
DUCHIFAT 1
1 40021U 14033M   19137.72554899  .00000462  00000-0  53016-4 0  9999
2 40021  97.9240  62.2145 0013488 149.4555 210.7451 14.90603694266788
QB50P1
1 40025U 14033R   19137.30815908  .00000343  00000-0  42452-4 0  9998
2 40025  97.9068  57.0437 0012794 159.5196 200.6536 14.88924632266505
CHUBUSAT 1
1 40300U 14070C   19138.23233162  .00001020  00000-0  47436-4 0  9994
2 40300  97.3265 213.2053 0019527 162.7884 269.9800 15.22045236251234
NUDT-PHONESAT
1 40900U 15049B   19138.09160340  .00003115  00000-0  13662-3 0  9998
2 40900  97.4379 147.7389 0011508 301.3905 101.5001 15.22672606202851
ZDPS 2A
1 40901U 15049C   19138.15662083  .00001234  00000-0  64526-4 0  9993
2 40901  97.4598 144.4377 0012533 319.8374 104.5711 15.17675628202457
ZDPS 2B
1 40902U 15049D   19138.11567939  .00001871  00000-0  96620-4 0  9991
2 40902  97.4540 141.9458 0012579 316.8964 127.9920 15.17475103202423
XW-2A
1 40903U 15049E   19138.10512345  .00002832  00000-0  68958-4 0  9993
2 40903  97.3408 180.6861 0011831 259.7382 184.7181 15.41738309205388
KAITUO 1A
1 40904U 15049F   19138.24190106  .00000476  00000-0  28706-4 0  9995
2 40904  97.4668 140.7903 0013790 323.3287 165.1469 15.15335327202237
OBJECT G
1 40905U 15049G   19138.28686523  .00000355  00000-0  22972-4 0  9998
2 40905  97.4701 138.4282 0014732 316.7349 100.0689 15.14265016202128
XW-2C
1 40906U 15049H   19138.24919684  .00000809  00000-0  45989-4 0  9999
2 40906  97.4674 140.8516 0013718 313.9399 174.3542 15.15636238202235
XW-2D
1 40907U 15049J   19138.28366992  .00000915  00000-0  51276-4 0  9996
2 40907  97.4654 140.5622 0012801 311.0502 106.2888 15.15820867202258
LILACSAT 2
1 40908U 15049K   19138.26648310  .00000812  00000-0  48540-4 0  9998
2 40908  97.4776 139.4495 0014912 316.8401 160.4316 15.13781093202056
XW-2F
1 40910U 15049M   19138.07465245  .00001550  00000-0  81194-4 0  9996
2 40910  97.4622 142.2756 0013475 304.8406  98.7609 15.17233946202226
XW-2B
1 40911U 15049N   19138.18466818  .00001146  00000-0  63461-4 0  9994
2 40911  97.4676 141.1041 0012889 312.8186 114.3431 15.15753995202130
